[[{"header":{"parameterUnit":"m.s-1","parameterCategory":1,"la1":30.2991,"la2":30.254,"lo1":-89.0895,"lo2":-89.0444,"dy":0.0017,"dx":0.0017,"nx":28,"ny":28,"refTime":"2023-09-14T21:00:00:Z","depth":0,"parameterNumber":2,"parameterNumberName":"U-component_of_WINDS"},"data":[0,0,0,0,0,0,0,0,0,0,0,0,0,0,0,0,0,0,0,0,0,0,0,0,0,0,0,0,0,0,0,0,0,0,0,0,0,0,0,0,0,0,0,0,0,0,0,0,0,0,0,0,0,0,0,0,0,0,-0.1835,-0.1836,0,-0.1862,-0.1862,-0.1862,-0.1847,-0.1846,-0.1846,-0.1845,-0.187,-0.1872,-0.1873,0,0,0,0,0,0,0,0,0,0,0,0,0,-0.1769,-0.1771,-0.1835,-0.1836,-0.1836,-0.1862,-0.1862,-0.1862,-0.1847,-0.1846,-0.1845,-0.1844,-0.187,-0.1872,-0.1873,0,0,0,0,0,0,0,0,0,0,0,0,0,-0.1797,-0.1771,-0.1835,-0.1831,-0.1831,-0.1862,-0.1862,-0.1863,-0.1847,-0.1846,-0.1845,-0.1844,-0.1869,-0.1871,-0.1873,-0.1908,0,0,-0.188,-0.1881,0,0,0,0,0,0,0,0,-0.1796,-0.18,-0.1832,-0.1832,-0.1832,-0.185,-0.1848,-0.1878,-0.1848,-0.1841,-0.1845,-0.1844,-0.1864,-0.1867,-0.1874,-0.191,-0.1911,-0.188,-0.1881,-0.1882,-0.1883,0,0,0,0,0,0,0,-0.1794,-0.1798,-0.1846,-0.1832,-0.1832,-0.1828,-0.1831,-0.1854,-0.1859,-0.1842,-0.1841,-0.1844,-0.1864,-0.1872,-0.1875,-0.1911,-0.188,-0.1882,-0.1883,-0.1884,-0.1976,-0.1977,0,0,0,0,0,0,-0.1792,-0.1797,-0.1845,-0.1847,-0.1811,-0.183,-0.1833,-0.1845,-0.1858,-0.1859,-0.1845,-0.1843,-0.1869,-0.1872,-0.1875,-0.1917,-0.1882,-0.1884,-0.1885,-0.1975,-0.1976,-0.1978,0,0,0,0,0,0,-0.1791,-0.1797,-0.1844,-0.1821,-0.1827,-0.1832,-0.1846,-0.1846,-0.1854,-0.1861,-0.1862,-0.1853,-0.1868,-0.1873,-0.19,-0.1918,-0.1885,-0.1887,-0.1974,-0.1975,-0.1977,-0.2001,0,0,0,0,0,0,-0.1789,-0.1796,-0.181,-0.1822,-0.1828,-0.1869,-0.1847,-0.1848,-0.1858,-0.1856,-0.1868,-0.1869,-0.1868,-0.1897,-0.1902,-0.192,-0.1888,-0.1972,-0.1974,-0.1977,-0.1999,-0.2004,-0.2008,0,0,0,0,0,-0.1787,-0.1816,-0.1811,-0.1817,-0.1846,-0.187,-0.1874,-0.1872,-0.186,-0.1873,-0.1877,-0.1869,-0.1915,-0.19,-0.1906,-0.1925,-0.1971,-0.1974,-0.1976,-0.1997,-0.2003,-0.2008,0,0,0,0,0,0,-0.1806,-0.1817,-0.1812,-0.1846,-0.1857,-0.1867,-0.1885,-0.1879,-0.1893,-0.1891,-0.1888,-0.1891,-0.192,-0.1925,-0.1908,-0.1959,-0.1941,-0.1945,-0.1955,-0.196,-0.1965,-0.1963,-0.189,0,0,0,0,0,-0.1814,-0.1833,-0.1842,-0.187,-0.1876,-0.188,-0.189,-0.1888,-0.1899,-0.1904,-0.191,-0.1921,-0.1938,-0.1949,-0.1965,-0.1999,-0.2002,-0.2015,-0.2019,-0.2023,-0.2026,-0.2044,-0.205,-0.1987,-0.1987,-0.1987,0,0,-0.183,-0.1839,-0.1851,-0.1874,-0.1883,-0.1902,-0.1884,-0.1905,-0.1919,-0.1907,-0.1934,-0.1939,-0.1951,-0.1982,-0.1996,-0.1987,-0.2044,-0.2026,-0.2029,-0.2031,-0.2048,-0.2054,-0.2059,-0.1989,-0.1988,-0.1988,0,0,-0.1871,-0.188,-0.1905,-0.1914,-0.1927,-0.1929,-0.1935,-0.1946,-0.1949,-0.1976,-0.1967,-0.1983,-0.2013,-0.2022,-0.203,-0.2073,-0.2066,-0.2079,-0.2102,-0.2119,-0.2125,-0.2129,-0.2144,-0.215,-0.2082,-0.2082,-0.2082,0,-0.189,-0.192,-0.1918,-0.194,-0.195,-0.194,-0.1965,-0.1974,-0.1991,-0.1998,-0.1988,-0.2025,-0.2032,-0.2065,-0.2076,-0.2083,-0.2089,-0.2077,-0.2124,-0.2128,-0.2133,-0.2147,-0.2153,-0.2084,-0.2083,-0.2083,-0.2083,0,-0.1942,-0.1963,-0.1981,-0.1999,-0.2011,-0.2035,-0.2036,-0.2048,-0.2045,-0.2048,-0.2075,-0.2083,-0.2101,-0.2108,-0.2105,-0.2141,-0.2135,-0.2124,-0.2106,-0.214,-0.2154,-0.2159,-0.2086,-0.2085,-0.2085,-0.2084,0,0,-0.1996,-0.2013,-0.2019,-0.2027,-0.2041,-0.2056,-0.2079,-0.2096,-0.2107,-0.2119,-0.2138,-0.2163,-0.2153,-0.2163,-0.216,-0.2176,-0.221,-0.2164,-0.2164,-0.2172,-0.2249,-0.2257,-0.2263,-0.2204,-0.2205,-0.2206,-0.2248,0,-0.2038,-0.2078,-0.2077,-0.2114,-0.2132,-0.2123,-0.2142,-0.2153,-0.2156,-0.2171,-0.2174,-0.2192,-0.2178,-0.2184,-0.2199,-0.2202,-0.2225,-0.2199,-0.2221,-0.2222,-0.2219,-0.2271,-0.2279,-0.2318,-0.2253,-0.2254,-0.2255,0,-0.2092,-0.2106,-0.2145,-0.2156,-0.2164,-0.2182,-0.2197,-0.2213,-0.2224,-0.2225,-0.2235,-0.223,-0.2252,-0.2234,-0.2264,-0.2246,-0.2255,-0.2258,-0.226,-0.2262,-0.2241,-0.2274,-0.233,-0.2336,-0.2263,-0.2263,-0.2262,0,-0.2127,-0.2156,-0.2183,-0.219,-0.2204,-0.2216,-0.2222,-0.2232,-0.2243,-0.2256,-0.2263,-0.2279,-0.2287,-0.2299,-0.2298,-0.2285,-0.2329,-0.231,-0.233,-0.233,-0.234,-0.234,-0.2399,-0.2346,-0.2346,-0.2345,-0.2345,0,-0.2174,-0.2198,-0.22,-0.2216,-0.2243,-0.2241,-0.2267,-0.2272,-0.2281,-0.2298,-0.229,-0.2306,-0.2304,-0.232,-0.2319,-0.2344,-0.2348,-0.2349,-0.2349,-0.235,-0.235,-0.2356,-0.2353,-0.2347,-0.2347,-0.2346,-0.2346,0,-0.2218,-0.222,-0.2249,-0.2259,-0.2262,-0.2281,-0.2289,-0.2305,-0.2307,-0.2329,-0.2334,-0.2337,-0.2355,-0.2355,-0.2376,-0.2376,-0.2406,-0.2403,-0.2403,-0.2402,-0.2422,-0.242,-0.2487,-0.2496,-0.2437,-0.2438,-0.2438,0,-0.2248,-0.2266,-0.2278,-0.229,-0.2296,-0.2314,-0.2325,-0.2323,-0.2335,-0.2348,-0.2362,-0.238,-0.2394,-0.2423,-0.2427,-0.2443,-0.244,-0.2462,-0.2442,-0.2443,-0.244,-0.2439,-0.2441,-0.2466,-0.2467,-0.2467,-0.2468,0,-0.2301,-0.2301,-0.2317,-0.2333,-0.2346,-0.2359,-0.2371,-0.238,-0.238,-0.2393,-0.2412,-0.2422,-0.2444,-0.2461,-0.2476,-0.2482,-0.2475,-0.2474,-0.2479,-0.2481,-0.248,-0.2481,-0.2414,-0.2472,-0.2472,-0.2472,-0.2471,-0.2471,-0.2339,-0.2355,-0.2366,-0.2384,-0.2392,-0.2403,-0.2418,-0.2423,-0.2438,-0.2456,-0.2454,-0.2475,-0.2484,-0.2504,-0.2511,-0.2527,-0.2519,-0.2527,-0.2529,-0.2531,-0.2533,-0.2478,-0.2529,-0.2529,-0.2529,-0.2529,-0.2529,0,-0.2391,-0.2398,-0.2414,-0.2431,-0.2445,-0.2438,-0.245,-0.2462,-0.2481,-0.2491,-0.2505,-0.2526,-0.2543,-0.2548,-0.2564,-0.2576,-0.2573,-0.258,-0.2579,-0.2581,-0.2539,-0.2533,-0.2582,-0.2582,-0.2582,-0.2582,-0.2582,-0.2582,-0.242,-0.2447,-0.2448,-0.2478,-0.2484,-0.2505,-0.2513,-0.2523,-0.2531,-0.2555,-0.2569,-0.2573,-0.2581,-0.2597,-0.2612,-0.2613,-0.2619,-0.2628,-0.2627,-0.2589,-0.2583,-0.2578,-0.2572,-0.2629,-0.2629,-0.2668,-0.2668,-0.2668]},{"header":{"parameterUnit":"m.s-1","parameterCategory":1,"la1":30.2991,"la2":30.254,"lo1":-89.0895,"lo2":-89.0444,"dy":0.0017,"dx":0.0017,"nx":28,"ny":28,"refTime":"2023-09-14T21:00:00:Z","depth":0,"parameterNumber":3,"parameterNumberName":"V-component_of_WINDS"},"data":[0,0,0,0,0,0,0,0,0,0,0,0,0,0,0,0,0,0,0,0,0,0,0,0,0,0,0,0,0,0,0,0,0,0,0,0,0,0,0,0,0,0,0,0,0,0,0,0,0,0,0,0,0,0,0,0,0,0,1.5076,1.5076,0,1.5107,1.5107,1.5107,1.5154,1.5155,1.5156,1.5156,1.5186,1.5186,1.5186,0,0,0,0,0,0,0,0,0,0,0,0,0,1.5056,1.5056,1.5076,1.5076,1.5077,1.5107,1.5107,1.5108,1.5154,1.5155,1.5156,1.5157,1.5186,1.5186,1.5186,0,0,0,0,0,0,0,0,0,0,0,0,0,1.5073,1.5056,1.5076,1.5104,1.5106,1.5107,1.5107,1.5108,1.5154,1.5155,1.5156,1.5157,1.5186,1.5186,1.5186,1.5161,0,0,1.5186,1.5186,0,0,0,0,0,0,0,0,1.5072,1.5074,1.5099,1.5102,1.5105,1.5128,1.5111,1.5125,1.5153,1.5136,1.5156,1.5158,1.5165,1.5167,1.517,1.5162,1.5164,1.5186,1.5186,1.5186,1.5186,0,0,0,0,0,0,0,1.5071,1.5073,1.5088,1.5099,1.5103,1.5114,1.5118,1.5114,1.5143,1.5137,1.5141,1.5144,1.5167,1.517,1.5171,1.5164,1.5186,1.5186,1.5186,1.5186,1.5136,1.5135,0,0,0,0,0,0,1.5066,1.5071,1.5087,1.5089,1.5091,1.5113,1.5117,1.5119,1.5143,1.5148,1.5143,1.5146,1.5169,1.5171,1.5172,1.5144,1.5186,1.5186,1.5186,1.5138,1.5136,1.5134,0,0,0,0,0,0,1.5065,1.5067,1.5086,1.5081,1.5084,1.5112,1.5114,1.5119,1.5122,1.5147,1.5153,1.514,1.517,1.5172,1.5163,1.5145,1.5186,1.5186,1.5139,1.5137,1.5135,1.5086,0,0,0,0,0,0,1.5064,1.5066,1.5057,1.5081,1.5085,1.5077,1.5113,1.5119,1.5122,1.5127,1.5146,1.5151,1.5171,1.5163,1.5163,1.5146,1.5186,1.5141,1.5138,1.5136,1.509,1.5083,1.5077,0,0,0,0,0,1.5063,1.5042,1.5057,1.5058,1.5074,1.5076,1.5078,1.5102,1.5121,1.5111,1.5128,1.515,1.5148,1.5162,1.5162,1.5145,1.5142,1.5139,1.5136,1.5093,1.5084,1.5077,0,0,0,0,0,0,1.5015,1.5046,1.5062,1.5048,1.5059,1.5084,1.5073,1.5093,1.5099,1.5102,1.5132,1.5136,1.5123,1.5134,1.5149,1.5122,1.5148,1.5145,1.5115,1.5107,1.5101,1.5098,1.5186,0,0,0,0,0,1.5003,1.5003,1.5029,1.5014,1.5019,1.5045,1.5046,1.5064,1.5077,1.5081,1.5097,1.5107,1.5109,1.5109,1.5112,1.5092,1.5096,1.5081,1.5074,1.5069,1.5065,1.5054,1.5047,1.5125,1.5125,1.5125,0,0,1.4978,1.4995,1.4992,1.5005,1.5015,1.5013,1.5048,1.5045,1.5043,1.5081,1.5073,1.5085,1.5098,1.5083,1.5078,1.5091,1.5045,1.5065,1.5061,1.506,1.5051,1.5043,1.5037,1.5123,1.5123,1.5123,0,0,1.493,1.4944,1.4932,1.4942,1.4958,1.4975,1.4972,1.4994,1.5003,1.4996,1.5024,1.5023,1.5025,1.5033,1.5037,1.4993,1.5013,1.4993,1.496,1.4949,1.4943,1.4937,1.492,1.4913,1.499,1.499,1.499,0,1.4896,1.4895,1.4923,1.4917,1.4921,1.4957,1.4944,1.4953,1.4968,1.497,1.4986,1.4989,1.5001,1.4987,1.4977,1.498,1.4976,1.499,1.4942,1.4936,1.4932,1.4915,1.4909,1.4987,1.4988,1.4988,1.4988,0,1.4851,1.485,1.4838,1.4853,1.4856,1.4847,1.4873,1.4873,1.4891,1.4907,1.4898,1.4914,1.492,1.4919,1.4936,1.4908,1.4916,1.4936,1.4963,1.4921,1.4906,1.49,1.4983,1.4984,1.4985,1.4986,0,0,1.4773,1.4804,1.4799,1.4805,1.4826,1.4824,1.4817,1.4824,1.4822,1.4832,1.4825,1.4827,1.4845,1.485,1.4869,1.486,1.4822,1.4881,1.4882,1.4868,1.4789,1.4772,1.4765,1.4836,1.4835,1.4834,1.4788,0,1.4727,1.4716,1.4742,1.4724,1.4722,1.4756,1.4749,1.476,1.4775,1.4775,1.4791,1.4791,1.4817,1.482,1.4812,1.4828,1.4806,1.4832,1.4829,1.4828,1.4822,1.4757,1.4739,1.4694,1.4782,1.4781,1.4781,0,1.4673,1.468,1.4662,1.4683,1.4683,1.4676,1.4684,1.4684,1.4697,1.4709,1.4714,1.4737,1.473,1.4757,1.4748,1.4765,1.4765,1.4773,1.4772,1.4771,1.48,1.4752,1.4681,1.4673,1.4772,1.4773,1.4773,0,1.4615,1.462,1.461,1.4615,1.4639,1.4634,1.4644,1.4658,1.466,1.4667,1.4669,1.4675,1.4677,1.4681,1.4704,1.4722,1.469,1.472,1.4698,1.4697,1.4688,1.4688,1.4613,1.4692,1.4692,1.4692,1.4692,0,1.456,1.4547,1.4584,1.4577,1.4564,1.4593,1.4579,1.4592,1.4605,1.4601,1.4631,1.4626,1.4658,1.4657,1.4675,1.4663,1.4665,1.4672,1.4677,1.4668,1.4667,1.4667,1.467,1.469,1.4691,1.4691,1.4691,0,1.4492,1.4516,1.4507,1.4531,1.4537,1.4526,1.4546,1.4541,1.4558,1.4552,1.4552,1.4579,1.4579,1.4603,1.4608,1.462,1.4599,1.4611,1.4594,1.4597,1.4573,1.4574,1.4494,1.4485,1.4571,1.457,1.457,0,1.4454,1.4445,1.4469,1.4468,1.4477,1.4476,1.4479,1.4508,1.4509,1.4523,1.4515,1.4518,1.4521,1.452,1.4538,1.4542,1.4553,1.4525,1.4553,1.4544,1.455,1.4549,1.4547,1.4517,1.4516,1.4516,1.4515,0,1.4384,1.4397,1.44,1.4406,1.4408,1.4415,1.4423,1.4421,1.4453,1.4452,1.4453,1.4456,1.4461,1.4462,1.447,1.4479,1.4501,1.4506,1.4501,1.4491,1.4481,1.4484,1.4576,1.4507,1.4508,1.4508,1.4509,1.4509,1.4329,1.4322,1.4337,1.4339,1.4349,1.4356,1.4351,1.4368,1.4369,1.4376,1.4393,1.439,1.4404,1.4416,1.4423,1.4421,1.4435,1.4428,1.4426,1.4423,1.4417,1.4483,1.4423,1.4423,1.4424,1.4424,1.4424,0,1.4259,1.4271,1.4272,1.4283,1.4284,1.4307,1.4317,1.4316,1.4313,1.4324,1.4327,1.4327,1.4329,1.4349,1.4353,1.4347,1.4357,1.4347,1.4346,1.4348,1.4406,1.4409,1.4338,1.4338,1.4338,1.4338,1.4338,1.4338,1.4222,1.4211,1.4226,1.4219,1.4231,1.4229,1.4233,1.4239,1.4248,1.4247,1.4249,1.4262,1.4276,1.4281,1.4284,1.4289,1.4288,1.4274,1.4283,1.4336,1.4344,1.4352,1.4355,1.4274,1.4274,1.4225,1.4224,1.4224]}]]